When you browse on this site, cookies collect data to enhance your experience and personalize the content and advertising you see.
Visit our Privacy Policy to learn more. By continuing to use the site, you agree to this use of cookies and data.
  • In Österreich
  • Länderverzeichnis
  • Für 7 Tage
  • Wassertemperatur
  • Wetterkarte
  • News
  • Widgets
  • user-avatar
    Anmelden

    Stündliche Wetter San Luis

    Heute, 24 September, Dienstag

    Zeit Temperatur Niederschläge Wind Luftdruck Luftfeuchtigkeit
    00:00 +17°C° 0 mm 2 m/S 703 mmHg 38%
    01:00 +16°C° 0 mm 2 m/S 703 mmHg 39%
    02:00 +16°C° 0 mm 2 m/S 703 mmHg 41%
    03:00 +15°C° 0 mm 2 m/S 703 mmHg 42%
    04:00 +14°C° 0 mm 1 m/S 703 mmHg 44%
    05:00 +14°C° 0 mm 1 m/S 703 mmHg 45%
    06:00 +16°C° 0 mm 1 m/S 704 mmHg 40%
    07:00 +19°C° 0 mm 1 m/S 704 mmHg 35%
    08:00 +21°C° 0 mm 1 m/S 705 mmHg 30%
    09:00 +23°C° 0 mm 1 m/S 705 mmHg 27%
    10:00 +25°C° 0 mm 1 m/S 706 mmHg 23%
    11:00 +26°C° 0 mm 1 m/S 706 mmHg 20%
    12:00 +27°C° 0 mm 2 m/S 705 mmHg 18%
    13:00 +28°C° 0 mm 2 m/S 705 mmHg 16%
    14:00 +29°C° 0 mm 3 m/S 704 mmHg 14%
    15:00 +29°C° 0 mm 3 m/S 704 mmHg 14%
    16:00 +28°C° 0 mm 4 m/S 704 mmHg 14%
    17:00 +28°C° 0 mm 4 m/S 703 mmHg 13%
    18:00 +26°C° 0 mm 4 m/S 703 mmHg 16%
    19:00 +23°C° 0 mm 4 m/S 703 mmHg 18%
    20:00 +21°C° 0 mm 5 m/S 703 mmHg 20%
    21:00 +20°C° 0 mm 4 m/S 703 mmHg 22%
    22:00 +20°C° 0 mm 4 m/S 704 mmHg 23%
    23:00 +19°C° 0 mm 4 m/S 704 mmHg 24%

    Morgen, 25 September, Mittwoch

    Zeit Temperatur Niederschläge Wind Luftdruck Luftfeuchtigkeit
    00:00 +18°C° 0 mm 3 m/S 703 mmHg 26%
    01:00 +18°C° 0 mm 3 m/S 703 mmHg 27%
    02:00 +17°C° 0 mm 2 m/S 703 mmHg 29%
    03:00 +17°C° 0 mm 3 m/S 703 mmHg 29%
    04:00 +17°C° 0 mm 3 m/S 703 mmHg 29%
    05:00 +17°C° 0 mm 3 m/S 703 mmHg 29%
    06:00 +19°C° 0 mm 3 m/S 703 mmHg 27%
    07:00 +21°C° 0 mm 3 m/S 703 mmHg 25%
    08:00 +24°C° 0 mm 3 m/S 704 mmHg 23%
    09:00 +26°C° 0 mm 4 m/S 704 mmHg 21%
    10:00 +28°C° 0 mm 4 m/S 704 mmHg 19%
    11:00 +29°C° 0 mm 5 m/S 703 mmHg 17%
    12:00 +30°C° 0 mm 5 m/S 703 mmHg 17%
    13:00 +32°C° 0 mm 4 m/S 702 mmHg 16%
    14:00 +33°C° 0 mm 4 m/S 701 mmHg 15%
    15:00 +32°C° 0 mm 4 m/S 701 mmHg 15%
    16:00 +32°C° 0 mm 4 m/S 700 mmHg 15%
    17:00 +32°C° 0 mm 4 m/S 700 mmHg 16%
    18:00 +29°C° 0 mm 4 m/S 700 mmHg 19%
    19:00 +26°C° 0 mm 4 m/S 700 mmHg 22%
    20:00 +24°C° 0 mm 3 m/S 699 mmHg 25%
    21:00 +22°C° 0 mm 4 m/S 699 mmHg 26%
    22:00 +22°C° 0 mm 4 m/S 699 mmHg 26%
    23:00 +21°C° 0 mm 4 m/S 699 mmHg 27%

    übermorgen, 26 September, Donnerstag

    Zeit Temperatur Niederschläge Wind Luftdruck Luftfeuchtigkeit
    00:00 +21°C° 0 mm 5 m/S 699 mmHg 28%
    01:00 +21°C° 0 mm 6 m/S 699 mmHg 29%
    02:00 +21°C° 0 mm 6 m/S 699 mmHg 30%
    03:00 +20°C° 0 mm 6 m/S 699 mmHg 31%
    04:00 +20°C° 0 mm 6 m/S 700 mmHg 32%
    05:00 +19°C° 0 mm 5 m/S 700 mmHg 34%
    06:00 +21°C° 0 mm 5 m/S 700 mmHg 31%
    07:00 +23°C° 0 mm 5 m/S 701 mmHg 28%
    08:00 +25°C° 0 mm 5 m/S 701 mmHg 25%
    09:00 +27°C° 0 mm 5 m/S 702 mmHg 23%
    10:00 +28°C° 0 mm 5 m/S 702 mmHg 21%
    11:00 +30°C° 0 mm 5 m/S 702 mmHg 19%
    12:00 +32°C° 0 mm 5 m/S 701 mmHg 18%
    13:00 +33°C° 0 mm 5 m/S 701 mmHg 16%
    14:00 +33°C° 0 mm 5 m/S 700 mmHg 15%
    15:00 +33°C° 0 mm 5 m/S 699 mmHg 15%
    16:00 +32°C° 0 mm 6 m/S 699 mmHg 15%
    17:00 +32°C° 0 mm 6 m/S 698 mmHg 14%
    18:00 +29°C° 0 mm 6 m/S 698 mmHg 17%
    19:00 +27°C° 0 mm 5 m/S 698 mmHg 20%
    20:00 +25°C° 0 mm 5 m/S 697 mmHg 23%
    21:00 +23°C° 0 mm 5 m/S 697 mmHg 25%
    22:00 +22°C° 0 mm 6 m/S 697 mmHg 26%
    23:00 +21°C° 0 mm 6 m/S 697 mmHg 28%

    27 September, Freitag

    Zeit Temperatur Niederschläge Wind Luftdruck Luftfeuchtigkeit
    00:00 +21°C° 0 mm 6 m/S 696 mmHg 29%
    01:00 +21°C° 0 mm 6 m/S 696 mmHg 30%
    02:00 +20°C° 0 mm 6 m/S 696 mmHg 31%
    03:00 +20°C° 0 mm 6 m/S 696 mmHg 32%
    04:00 +19°C° 0 mm 6 m/S 696 mmHg 34%
    05:00 +17°C° 0 mm 6 m/S 696 mmHg 35%
    06:00 +20°C° 0 mm 6 m/S 696 mmHg 34%
    07:00 +21°C° 0 mm 7 m/S 696 mmHg 33%
    08:00 +22°C° 0 mm 7 m/S 697 mmHg 32%
    09:00 +23°C° 0 mm 7 m/S 697 mmHg 30%
    10:00 +26°C° 0 mm 7 m/S 697 mmHg 28%
    11:00 +27°C° 0 mm 8 m/S 697 mmHg 26%
    12:00 +28°C° 0 mm 7 m/S 696 mmHg 25%
    13:00 +29°C° 0 mm 7 m/S 696 mmHg 24%
    14:00 +30°C° 0 mm 7 m/S 696 mmHg 23%
    15:00 +29°C° 0 mm 6 m/S 695 mmHg 24%
    16:00 +29°C° 0 mm 6 m/S 695 mmHg 24%
    17:00 +29°C° 0 mm 6 m/S 695 mmHg 25%
    18:00 +27°C° 0 mm 5 m/S 695 mmHg 28%
    19:00 +25°C° 0 mm 5 m/S 695 mmHg 32%
    20:00 +22°C° 0 mm 5 m/S 696 mmHg 36%
    21:00 +22°C° 0 mm 5 m/S 696 mmHg 37%
    22:00 +21°C° 0 mm 5 m/S 696 mmHg 37%
    23:00 +21°C° 0 mm 4 m/S 696 mmHg 37%

    28 September, Samstag

    Zeit Temperatur Niederschläge Wind Luftdruck Luftfeuchtigkeit
    00:00 +21°C° 0 mm 4 m/S 696 mmHg 38%
    01:00 +20°C° 0 mm 4 m/S 696 mmHg 39%
    02:00 +20°C° 0 mm 4 m/S 696 mmHg 40%
    03:00 +19°C° 0 mm 4 m/S 696 mmHg 41%
    04:00 +19°C° 0 mm 4 m/S 696 mmHg 42%
    05:00 +19°C° 0 mm 4 m/S 696 mmHg 44%
    06:00 +20°C° 0 mm 4 m/S 697 mmHg 40%
    07:00 +22°C° 0 mm 4 m/S 697 mmHg 37%
    08:00 +25°C° 0 mm 4 m/S 698 mmHg 33%
    09:00 +26°C° 0 mm 4 m/S 698 mmHg 30%
    10:00 +28°C° 0 mm 4 m/S 698 mmHg 26%
    11:00 +30°C° 0 mm 4 m/S 698 mmHg 23%
    12:00 +32°C° 0 mm 4 m/S 698 mmHg 21%
    13:00 +33°C° 0 mm 4 m/S 697 mmHg 18%
    14:00 +34°C° 0 mm 4 m/S 696 mmHg 16%
    15:00 +34°C° 0 mm 4 m/S 696 mmHg 17%
    16:00 +33°C° 0 mm 5 m/S 695 mmHg 17%
    17:00 +33°C° 0 mm 5 m/S 694 mmHg 17%
    18:00 +30°C° 0 mm 5 m/S 694 mmHg 21%
    19:00 +28°C° 0 mm 5 m/S 694 mmHg 25%
    20:00 +25°C° 0 mm 4 m/S 694 mmHg 29%
    21:00 +25°C° 0 mm 5 m/S 694 mmHg 31%
    22:00 +24°C° 0 mm 6 m/S 694 mmHg 34%
    23:00 +23°C° 0 mm 6 m/S 694 mmHg 36%

    29 September, Sonntag

    Zeit Temperatur Niederschläge Wind Luftdruck Luftfeuchtigkeit
    00:00 +23°C° 0 mm 6 m/S 693 mmHg 37%
    01:00 +23°C° 0 mm 7 m/S 693 mmHg 38%
    02:00 +23°C° 0 mm 7 m/S 693 mmHg 40%
    03:00 +23°C° 0 mm 7 m/S 692 mmHg 41%
    04:00 +23°C° 0 mm 8 m/S 692 mmHg 42%
    05:00 +22°C° 0 mm 8 m/S 692 mmHg 44%
    06:00 +23°C° 0 mm 9 m/S 692 mmHg 41%
    07:00 +26°C° 0 mm 10 m/S 692 mmHg 39%
    08:00 +27°C° 0 mm 10 m/S 692 mmHg 37%
    09:00 +28°C° 0 mm 10 m/S 692 mmHg 33%
    10:00 +31°C° 0 mm 10 m/S 692 mmHg 29%
    11:00 +33°C° 0 mm 9 m/S 692 mmHg 26%
    12:00 +34°C° 0 mm 9 m/S 691 mmHg 23%
    13:00 +35°C° 0 mm 8 m/S 691 mmHg 21%
    14:00 +37°C° 0 mm 8 m/S 690 mmHg 18%
    15:00 +36°C° 0 mm 7 m/S 689 mmHg 18%
    16:00 +35°C° 0 mm 6 m/S 689 mmHg 18%
    17:00 +35°C° 0 mm 6 m/S 688 mmHg 18%
    18:00 +33°C° 0 mm 5 m/S 688 mmHg 22%
    19:00 +30°C° 0 mm 5 m/S 688 mmHg 26%
    20:00 +28°C° 0 mm 5 m/S 688 mmHg 30%
    21:00 +26°C° 0 mm 4 m/S 688 mmHg 33%
    22:00 +25°C° 0 mm 3 m/S 688 mmHg 35%
    23:00 +23°C° 0 mm 2 m/S 688 mmHg 38%
    Mehr zeigen